Year,Month,Day,Hour,Minute,Value (Times are PST for temperature in C)
2015,07,01,00,00,20.30
2015,07,01,00,01,20.30
2015,07,01,00,02,20.30
2015,07,01,00,03,20.30
2015,07,01,00,04,20.30
2015,07,01,00,05,20.30
2015,07,01,00,06,20.20
2015,07,01,00,07,20.20
2015,07,01,00,08,20.20
2015,07,01,00,09,20.20
2015,07,01,00,10,20.20
2015,07,01,00,11,20.20
2015,07,01,00,12,20.20
2015,07,01,00,13,20.20
2015,07,01,00,14,20.20
2015,07,01,00,15,20.10
2015,07,01,00,16,20.10
2015,07,01,00,17,20.10
2015,07,01,00,18,20.10
2015,07,01,00,19,20.10
2015,07,01,00,20,20.10
2015,07,01,00,21,20.10
2015,07,01,00,22,20.10
2015,07,01,00,23,20.10
2015,07,01,00,24,20.10
2015,07,01,00,25,20.10
2015,07,01,00,26,20.10
2015,07,01,00,27,20.10
2015,07,01,00,28,20.10
2015,07,01,00,29,20.10
2015,07,01,00,30,20.10
2015,07,01,00,31,20.10
2015,07,01,00,32,20.10
2015,07,01,00,33,20.10
2015,07,01,00,34,20.10
2015,07,01,00,35,20.10
2015,07,01,00,36,20.10
2015,07,01,00,37,20.10
2015,07,01,00,38,20.10
2015,07,01,00,39,20.10
2015,07,01,00,40,20.10
2015,07,01,00,41,20.10
2015,07,01,00,42,20.10
2015,07,01,00,43,20.10
2015,07,01,00,44,20.10
2015,07,01,00,45,20.10
2015,07,01,00,46,20.10
2015,07,01,00,47,20.10
2015,07,01,00,48,20.10
2015,07,01,00,49,20.10
2015,07,01,00,50,20.00
2015,07,01,00,51,20.00
2015,07,01,00,52,20.00
2015,07,01,00,53,20.00
2015,07,01,00,54,20.00
2015,07,01,00,55,20.00
2015,07,01,00,56,20.00
2015,07,01,00,57,20.00
2015,07,01,00,58,20.00
2015,07,01,00,59,20.00
2015,07,01,01,00,20.00
2015,07,01,01,01,20.00
2015,07,01,01,02,20.00
2015,07,01,01,03,20.00
2015,07,01,01,04,20.00
2015,07,01,01,05,20.00
2015,07,01,01,06,20.00
2015,07,01,01,07,20.00
2015,07,01,01,08,20.00
2015,07,01,01,09,19.90
2015,07,01,01,10,19.90
2015,07,01,01,11,19.90
2015,07,01,01,12,19.90
2015,07,01,01,13,19.90
2015,07,01,01,14,19.90
2015,07,01,01,15,19.90
2015,07,01,01,16,19.90
2015,07,01,01,17,19.80
2015,07,01,01,18,19.80
2015,07,01,01,19,19.80
2015,07,01,01,20,19.80
2015,07,01,01,21,19.80
2015,07,01,01,22,19.80
2015,07,01,01,23,19.70
2015,07,01,01,24,19.70
2015,07,01,01,25,19.70
2015,07,01,01,26,19.70
2015,07,01,01,27,19.70
2015,07,01,01,28,19.70
2015,07,01,01,29,19.70
2015,07,01,01,30,19.70
2015,07,01,01,31,19.70
2015,07,01,01,32,19.70
2015,07,01,01,33,19.60
2015,07,01,01,34,19.60
2015,07,01,01,35,19.60
2015,07,01,01,36,19.60
2015,07,01,01,37,19.60
2015,07,01,01,38,19.60
2015,07,01,01,39,19.50
2015,07,01,01,40,19.50
2015,07,01,01,41,19.50
2015,07,01,01,42,19.40
2015,07,01,01,43,19.40
2015,07,01,01,44,19.40
2015,07,01,01,45,19.40
2015,07,01,01,46,19.40
2015,07,01,01,47,19.30
2015,07,01,01,48,19.30
2015,07,01,01,49,19.30
2015,07,01,01,50,19.30
2015,07,01,01,51,19.30
2015,07,01,01,52,19.30
2015,07,01,01,53,19.30
2015,07,01,01,54,19.20
2015,07,01,01,55,19.20
2015,07,01,01,56,19.20
2015,07,01,01,57,19.20
2015,07,01,01,58,19.20
2015,07,01,01,59,19.20
2015,07,01,02,00,19.20
2015,07,01,02,01,19.20
2015,07,01,02,02,19.20
2015,07,01,02,03,19.10
2015,07,01,02,04,19.10
2015,07,01,02,05,19.10
2015,07,01,02,06,19.10
2015,07,01,02,07,19.10
2015,07,01,02,08,19.10
2015,07,01,02,09,19.10
2015,07,01,02,10,19.10
2015,07,01,02,11,19.00
2015,07,01,02,12,19.00
2015,07,01,02,13,19.00
2015,07,01,02,14,18.90
2015,07,01,02,15,18.90
2015,07,01,02,16,18.90
2015,07,01,02,17,18.90
2015,07,01,02,18,18.80
2015,07,01,02,19,18.80
2015,07,01,02,20,18.80
2015,07,01,02,21,18.80
2015,07,01,02,22,18.80
2015,07,01,02,23,18.80
2015,07,01,02,24,18.70
2015,07,01,02,25,18.70
2015,07,01,02,26,18.70
2015,07,01,02,27,18.70
2015,07,01,02,28,18.70
2015,07,01,02,29,18.70
2015,07,01,02,30,18.60
2015,07,01,02,31,18.60
2015,07,01,02,32,18.60
2015,07,01,02,33,18.60
2015,07,01,02,34,18.60
2015,07,01,02,35,18.60
2015,07,01,02,36,18.60
2015,07,01,02,37,18.60
2015,07,01,02,38,18.50
2015,07,01,02,39,18.50
2015,07,01,02,40,18.50
2015,07,01,02,41,18.50
2015,07,01,02,42,18.50
2015,07,01,02,43,18.50
2015,07,01,02,44,18.50
2015,07,01,02,45,18.40
2015,07,01,02,46,18.40
2015,07,01,02,47,18.40
2015,07,01,02,48,18.40
2015,07,01,02,49,18.40
2015,07,01,02,50,18.40
2015,07,01,02,51,18.30
2015,07,01,02,52,18.30
2015,07,01,02,53,18.30
2015,07,01,02,54,18.30
2015,07,01,02,55,18.30
2015,07,01,02,56,18.30
2015,07,01,02,57,18.30
2015,07,01,02,58,18.20
2015,07,01,02,59,18.20
2015,07,01,03,00,18.20
2015,07,01,03,01,18.20
2015,07,01,03,02,18.20
2015,07,01,03,03,18.20
2015,07,01,03,06,18.10
2015,07,01,03,07,18.10
2015,07,01,03,08,18.10
2015,07,01,03,09,18.10
2015,07,01,03,10,18.10
2015,07,01,03,11,18.10
2015,07,01,03,12,18.10
2015,07,01,03,13,18.10
2015,07,01,03,14,18.10
2015,07,01,03,15,18.10
2015,07,01,03,16,18.10
2015,07,01,03,17,18.10
2015,07,01,03,18,18.10
2015,07,01,03,19,18.10
2015,07,01,03,20,18.00
2015,07,01,03,21,18.00
2015,07,01,03,22,18.00
2015,07,01,03,23,18.00
2015,07,01,03,24,18.00
2015,07,01,03,25,18.00
2015,07,01,03,26,17.90
2015,07,01,03,27,17.90
2015,07,01,03,28,17.90
2015,07,01,03,29,17.90
2015,07,01,03,30,17.90
2015,07,01,03,31,17.90
2015,07,01,03,32,17.90
2015,07,01,03,33,17.90
2015,07,01,03,34,17.90
2015,07,01,03,35,17.90
2015,07,01,03,36,17.90
2015,07,01,03,37,17.90
2015,07,01,03,38,17.80
2015,07,01,03,39,17.80
2015,07,01,03,40,17.80
2015,07,01,03,41,17.80
2015,07,01,03,42,17.80
2015,07,01,03,43,17.80
2015,07,01,03,44,17.80
2015,07,01,03,45,17.80
2015,07,01,03,46,17.80
2015,07,01,03,47,17.80
2015,07,01,03,48,17.80
2015,07,01,03,49,17.80
2015,07,01,03,50,17.80
2015,07,01,03,51,17.70
2015,07,01,03,52,17.70
2015,07,01,03,53,17.70
2015,07,01,03,54,17.70
2015,07,01,03,55,17.70
2015,07,01,03,56,17.70
2015,07,01,03,57,17.70
2015,07,01,03,58,17.70
2015,07,01,03,59,17.70
2015,07,01,04,00,17.70
2015,07,01,04,01,17.70
2015,07,01,04,02,17.70
2015,07,01,04,03,17.70
2015,07,01,04,04,17.70
2015,07,01,04,05,17.60
2015,07,01,04,06,17.60
2015,07,01,04,07,17.60
2015,07,01,04,08,17.60
2015,07,01,04,09,17.60
2015,07,01,04,10,17.60
2015,07,01,04,11,17.60
2015,07,01,04,12,17.60
2015,07,01,04,13,17.60
2015,07,01,04,14,17.60
2015,07,01,04,15,17.60
2015,07,01,04,16,17.60
2015,07,01,04,17,17.60
2015,07,01,04,18,17.60
2015,07,01,04,19,17.60
2015,07,01,04,20,17.60
2015,07,01,04,21,17.60
2015,07,01,04,22,17.60
2015,07,01,04,23,17.60
2015,07,01,04,24,17.60
2015,07,01,04,25,17.60
2015,07,01,04,26,17.50
2015,07,01,04,27,17.50
2015,07,01,04,28,17.50
2015,07,01,04,29,17.50
2015,07,01,04,30,17.50
2015,07,01,04,31,17.50
2015,07,01,04,32,17.50
2015,07,01,04,33,17.50
2015,07,01,04,34,17.40
2015,07,01,04,35,17.40
2015,07,01,04,36,17.50
2015,07,01,04,37,17.40
2015,07,01,04,38,17.40
2015,07,01,04,39,17.40
2015,07,01,04,40,17.40
2015,07,01,04,41,17.40
2015,07,01,04,42,17.40
2015,07,01,04,43,17.40
2015,07,01,04,44,17.40
2015,07,01,04,45,17.40
2015,07,01,04,46,17.40
2015,07,01,04,47,17.40
2015,07,01,04,48,17.40
2015,07,01,04,49,17.40
2015,07,01,04,50,17.40
2015,07,01,04,51,17.50
2015,07,01,04,52,17.50
2015,07,01,04,53,17.50
2015,07,01,04,54,17.50
2015,07,01,04,55,17.60
2015,07,01,04,56,17.60
2015,07,01,04,57,17.60
2015,07,01,04,58,17.60
2015,07,01,04,59,17.60
2015,07,01,05,00,17.60
2015,07,01,05,01,17.60
2015,07,01,05,02,17.60
2015,07,01,05,03,17.60
2015,07,01,05,04,17.70
2015,07,01,05,05,17.70
2015,07,01,05,06,17.70
2015,07,01,05,07,17.60
2015,07,01,05,08,17.60
2015,07,01,05,09,17.60
2015,07,01,05,10,17.60
2015,07,01,05,11,17.60
2015,07,01,05,12,17.60
2015,07,01,05,13,17.50
2015,07,01,05,14,17.50
2015,07,01,05,15,17.50
2015,07,01,05,16,17.40
2015,07,01,05,17,17.40
2015,07,01,05,18,17.40
2015,07,01,05,19,17.40
2015,07,01,05,20,17.40
2015,07,01,05,21,17.40
2015,07,01,05,22,17.30
2015,07,01,05,23,17.30
2015,07,01,05,24,17.30
2015,07,01,05,25,17.30
2015,07,01,05,26,17.30
2015,07,01,05,27,17.30
2015,07,01,05,28,17.30
2015,07,01,05,29,17.30
2015,07,01,05,30,17.30
2015,07,01,05,31,17.30
2015,07,01,05,32,17.30
2015,07,01,05,33,17.20
2015,07,01,05,34,17.20
2015,07,01,05,35,17.20
2015,07,01,05,36,17.20
2015,07,01,05,37,17.20
2015,07,01,05,38,17.20
2015,07,01,05,39,17.20
2015,07,01,05,40,17.20
2015,07,01,05,41,17.20
2015,07,01,05,42,17.20
2015,07,01,05,43,17.20
2015,07,01,05,44,17.20
2015,07,01,05,45,17.20
2015,07,01,05,46,17.20
2015,07,01,05,47,17.20
2015,07,01,05,48,17.20
2015,07,01,05,49,17.30
2015,07,01,05,50,17.30
2015,07,01,05,51,17.30
2015,07,01,05,52,17.30
2015,07,01,05,53,17.30
2015,07,01,05,54,17.30
2015,07,01,05,55,17.30
2015,07,01,05,56,17.30
2015,07,01,05,57,17.30
2015,07,01,05,58,17.30
2015,07,01,05,59,17.30
2015,07,01,06,00,17.40
2015,07,01,06,01,17.40
2015,07,01,06,02,17.40
2015,07,01,06,03,17.40
2015,07,01,06,04,17.40
2015,07,01,06,05,17.40
2015,07,01,06,06,17.40
2015,07,01,06,07,17.40
2015,07,01,06,08,17.40
2015,07,01,06,09,17.40
2015,07,01,06,10,17.50
2015,07,01,06,11,17.50
2015,07,01,06,12,17.50
2015,07,01,06,13,17.50
2015,07,01,06,14,17.50
2015,07,01,06,15,17.50
2015,07,01,06,16,17.50
2015,07,01,06,17,17.50
2015,07,01,06,18,17.60
2015,07,01,06,19,17.60
2015,07,01,06,20,17.60
2015,07,01,06,21,17.60
2015,07,01,06,22,17.60
2015,07,01,06,23,17.60
2015,07,01,06,24,17.60
2015,07,01,06,25,17.70
2015,07,01,06,26,17.70
2015,07,01,06,27,17.70
2015,07,01,06,28,17.70
2015,07,01,06,29,17.70
2015,07,01,06,30,17.80
2015,07,01,06,31,17.80
2015,07,01,06,32,17.80
2015,07,01,06,33,17.80
2015,07,01,06,34,17.80
2015,07,01,06,35,17.80
2015,07,01,06,36,17.90
2015,07,01,06,37,17.90
2015,07,01,06,38,17.90
2015,07,01,06,39,17.90
2015,07,01,06,40,17.90
2015,07,01,06,41,17.90
2015,07,01,06,42,18.00
2015,07,01,06,43,18.00
2015,07,01,06,44,18.00
2015,07,01,06,45,18.00
2015,07,01,06,46,18.00
2015,07,01,06,47,18.00
2015,07,01,06,48,18.10
2015,07,01,06,49,18.10
2015,07,01,06,50,18.10
2015,07,01,06,51,18.10
2015,07,01,06,52,18.10
2015,07,01,06,53,18.20
2015,07,01,06,54,18.20
2015,07,01,06,55,18.20
2015,07,01,06,56,18.20
2015,07,01,06,57,18.20
2015,07,01,06,58,18.20
2015,07,01,06,59,18.20
2015,07,01,07,00,18.20
2015,07,01,07,01,18.20
2015,07,01,07,02,18.20
2015,07,01,07,03,18.20
2015,07,01,07,04,18.20
2015,07,01,07,05,18.20
2015,07,01,07,06,18.30
2015,07,01,07,07,18.30
2015,07,01,07,08,18.30
2015,07,01,07,09,18.30
2015,07,01,07,10,18.30
2015,07,01,07,11,18.30
2015,07,01,07,12,18.30
2015,07,01,07,13,18.30
2015,07,01,07,14,18.40
2015,07,01,07,15,18.40
2015,07,01,07,16,18.40
2015,07,01,07,17,18.40
2015,07,01,07,18,18.40
2015,07,01,07,19,18.40
2015,07,01,07,20,18.40
2015,07,01,07,21,18.40
2015,07,01,07,22,18.40
2015,07,01,07,23,18.40
2015,07,01,07,24,18.40
2015,07,01,07,25,18.40
2015,07,01,07,26,18.40
2015,07,01,07,27,18.40
2015,07,01,07,28,18.40
2015,07,01,07,29,18.40
2015,07,01,07,30,18.40
2015,07,01,07,31,18.40
2015,07,01,07,32,18.40
2015,07,01,07,33,18.40
2015,07,01,07,34,18.40
2015,07,01,07,35,18.40
2015,07,01,07,36,18.50
2015,07,01,07,37,18.50
2015,07,01,07,38,18.50
2015,07,01,07,39,18.60
2015,07,01,07,40,18.60
2015,07,01,07,41,18.60
2015,07,01,07,42,18.70
2015,07,01,07,43,18.70
2015,07,01,07,44,18.70
2015,07,01,07,45,18.70
2015,07,01,07,46,18.70
2015,07,01,07,47,18.80
2015,07,01,07,48,18.80
2015,07,01,07,49,18.80
2015,07,01,07,50,18.80
2015,07,01,07,51,18.90
2015,07,01,07,52,18.90
2015,07,01,07,53,19.00
2015,07,01,07,54,19.00
2015,07,01,07,55,19.10
2015,07,01,07,56,19.10
2015,07,01,07,57,19.10
2015,07,01,07,58,19.20
2015,07,01,07,59,19.20
2015,07,01,08,00,19.20
2015,07,01,08,01,19.20
2015,07,01,08,02,19.20
2015,07,01,08,03,19.20
2015,07,01,08,04,19.30
2015,07,01,08,05,19.30
2015,07,01,08,06,19.40
2015,07,01,08,07,19.40
2015,07,01,08,08,19.50
2015,07,01,08,09,19.60
2015,07,01,08,10,19.60
2015,07,01,08,11,19.70
2015,07,01,08,12,19.80
2015,07,01,08,13,19.80
2015,07,01,08,14,19.80
2015,07,01,08,15,19.80
2015,07,01,08,16,19.80
2015,07,01,08,17,19.80
2015,07,01,08,18,19.80
2015,07,01,08,19,19.80
2015,07,01,08,20,19.80
2015,07,01,08,21,19.90
2015,07,01,08,22,19.90
2015,07,01,08,23,19.90
2015,07,01,08,24,19.90
2015,07,01,08,25,19.90
2015,07,01,08,26,19.90
2015,07,01,08,27,19.90
2015,07,01,08,28,19.90
2015,07,01,08,29,19.90
2015,07,01,08,30,19.90
2015,07,01,08,31,19.80
2015,07,01,08,32,19.80
2015,07,01,08,33,19.70
2015,07,01,08,34,19.70
2015,07,01,08,35,19.70
2015,07,01,08,36,19.60
2015,07,01,08,37,19.60
2015,07,01,08,38,19.60
2015,07,01,08,39,19.60
2015,07,01,08,40,19.60
2015,07,01,08,41,19.60
2015,07,01,08,42,19.70
2015,07,01,08,43,19.70
2015,07,01,08,44,19.70
2015,07,01,08,45,19.70
2015,07,01,08,46,19.80
2015,07,01,08,47,19.80
2015,07,01,08,48,19.80
2015,07,01,08,49,19.80
2015,07,01,08,50,19.80
2015,07,01,08,51,19.70
2015,07,01,08,52,19.70
2015,07,01,08,53,19.70
2015,07,01,08,54,19.70
2015,07,01,08,55,19.70
2015,07,01,08,56,19.70
2015,07,01,08,57,19.70
2015,07,01,08,58,19.70
2015,07,01,08,59,19.70
2015,07,01,09,00,19.70
2015,07,01,09,01,19.70
2015,07,01,09,02,19.80
2015,07,01,09,03,19.80
2015,07,01,09,04,19.80
2015,07,01,09,05,19.90
2015,07,01,09,06,19.90
2015,07,01,09,07,19.90
2015,07,01,09,08,20.00
2015,07,01,09,09,20.00
2015,07,01,09,10,20.00
2015,07,01,09,11,20.10
2015,07,01,09,12,20.10
2015,07,01,09,13,20.10
2015,07,01,09,14,20.10
2015,07,01,09,15,20.10
2015,07,01,09,16,20.10
2015,07,01,09,17,20.10
2015,07,01,09,18,20.10
2015,07,01,09,19,20.10
2015,07,01,09,20,20.20
2015,07,01,09,21,20.20
2015,07,01,09,22,20.20
2015,07,01,09,23,20.20
2015,07,01,09,24,20.20
2015,07,01,09,25,20.20
2015,07,01,09,26,20.30
2015,07,01,09,27,20.30
2015,07,01,09,28,20.30
2015,07,01,09,29,20.30
2015,07,01,09,30,20.20
2015,07,01,09,31,20.20
2015,07,01,09,32,20.20
2015,07,01,09,33,20.20
2015,07,01,09,34,20.30
2015,07,01,09,35,20.30
2015,07,01,09,36,20.30
2015,07,01,09,37,20.30
2015,07,01,09,38,20.40
2015,07,01,09,39,20.40
2015,07,01,09,40,20.50
2015,07,01,09,41,20.60
2015,07,01,09,42,20.60
2015,07,01,09,43,20.60
2015,07,01,09,44,20.70
2015,07,01,09,45,20.70
2015,07,01,09,46,20.80
2015,07,01,09,47,20.80
2015,07,01,09,48,20.80
2015,07,01,09,49,20.80
2015,07,01,09,50,20.80
2015,07,01,09,51,20.80
2015,07,01,09,52,20.80
2015,07,01,09,53,20.80
2015,07,01,09,54,20.80
2015,07,01,09,55,20.80
2015,07,01,09,56,20.80
2015,07,01,09,57,20.80
2015,07,01,09,58,20.80
2015,07,01,09,59,20.80
2015,07,01,10,00,20.80
2015,07,01,10,01,20.90
2015,07,01,10,02,20.90
2015,07,01,10,03,20.90
2015,07,01,10,04,20.90
2015,07,01,10,05,21.00
2015,07,01,10,06,21.10
2015,07,01,10,07,21.10
2015,07,01,10,08,21.20
2015,07,01,10,09,21.20
2015,07,01,10,10,21.20
2015,07,01,10,11,21.20
2015,07,01,10,12,21.20
2015,07,01,10,13,21.20
2015,07,01,10,14,21.20
2015,07,01,10,15,21.20
2015,07,01,10,16,21.20
2015,07,01,10,17,21.30
2015,07,01,10,18,21.40
2015,07,01,10,19,21.40
2015,07,01,10,20,21.40
2015,07,01,10,21,21.40
2015,07,01,10,22,21.40
2015,07,01,10,23,21.40
2015,07,01,10,24,21.40
2015,07,01,10,25,21.40
2015,07,01,10,26,21.30
2015,07,01,10,27,21.30
2015,07,01,10,28,21.40
2015,07,01,10,29,21.40
2015,07,01,10,30,21.40
2015,07,01,10,31,21.40
2015,07,01,10,32,21.40
2015,07,01,10,33,21.40
2015,07,01,10,34,21.40
2015,07,01,10,35,21.40
2015,07,01,10,36,21.40
2015,07,01,10,37,21.40
2015,07,01,10,38,21.40
2015,07,01,10,39,21.30
2015,07,01,10,40,21.40
2015,07,01,10,41,21.40
2015,07,01,10,42,21.40
2015,07,01,10,43,21.50
2015,07,01,10,44,21.60
2015,07,01,10,45,21.60
2015,07,01,10,46,21.60
2015,07,01,10,47,21.60
2015,07,01,10,48,21.50
2015,07,01,10,49,21.50
2015,07,01,10,50,21.40
2015,07,01,10,51,21.40
2015,07,01,10,52,21.40
2015,07,01,10,53,21.50
2015,07,01,10,54,21.60
2015,07,01,10,55,21.60
2015,07,01,10,56,21.60
2015,07,01,10,57,21.60
2015,07,01,10,58,21.60
2015,07,01,10,59,21.60
2015,07,01,11,00,21.60
2015,07,01,11,01,21.60
2015,07,01,11,02,21.60
2015,07,01,11,03,21.60
2015,07,01,11,04,21.60
2015,07,01,11,05,21.70
2015,07,01,11,06,21.70
2015,07,01,11,07,21.70
2015,07,01,11,08,21.70
2015,07,01,11,09,21.70
2015,07,01,11,10,21.70
2015,07,01,11,11,21.70
2015,07,01,11,12,21.70
2015,07,01,11,13,21.80
2015,07,01,11,14,21.80
2015,07,01,11,15,21.80
2015,07,01,11,16,21.80
2015,07,01,11,17,21.90
2015,07,01,11,18,21.90
2015,07,01,11,19,21.90
2015,07,01,11,20,21.90
2015,07,01,11,21,21.90
2015,07,01,11,22,21.90
2015,07,01,11,23,21.90
2015,07,01,11,24,21.90
2015,07,01,11,25,21.80
2015,07,01,11,26,21.80
2015,07,01,11,27,21.80
2015,07,01,11,28,21.80
2015,07,01,11,29,21.90
2015,07,01,11,30,22.00
2015,07,01,11,31,22.10
2015,07,01,11,32,22.20
2015,07,01,11,33,22.30
2015,07,01,11,34,22.30
2015,07,01,11,35,22.30
2015,07,01,11,36,22.30
2015,07,01,11,37,22.30
2015,07,01,11,38,22.30
2015,07,01,11,39,22.30
2015,07,01,11,40,22.20
2015,07,01,11,41,22.20
2015,07,01,11,42,22.30
2015,07,01,11,43,22.30
2015,07,01,11,44,22.30
2015,07,01,11,45,22.30
2015,07,01,11,46,22.30
2015,07,01,11,47,22.30
2015,07,01,11,48,22.40
2015,07,01,11,49,22.40
2015,07,01,11,50,22.40
2015,07,01,11,51,22.50
2015,07,01,11,52,22.50
2015,07,01,11,53,22.60
2015,07,01,11,54,22.60
2015,07,01,11,55,22.60
2015,07,01,11,56,22.70
2015,07,01,11,57,22.70
2015,07,01,11,58,22.70
2015,07,01,11,59,22.80
2015,07,01,12,00,22.80
2015,07,01,12,01,22.80
2015,07,01,12,02,22.70
2015,07,01,12,03,22.70
2015,07,01,12,04,22.60
2015,07,01,12,05,22.60
2015,07,01,12,06,22.50
2015,07,01,12,07,22.50
2015,07,01,12,08,22.50
2015,07,01,12,09,22.60
2015,07,01,12,10,22.70
2015,07,01,12,11,22.70
2015,07,01,12,12,22.80
2015,07,01,12,13,22.80
2015,07,01,12,14,22.80
2015,07,01,12,15,22.90
2015,07,01,12,16,22.90
2015,07,01,12,17,23.00
2015,07,01,12,18,23.00
2015,07,01,12,19,23.10
2015,07,01,12,20,23.10
2015,07,01,12,21,23.10
2015,07,01,12,22,23.10
2015,07,01,12,23,23.10
2015,07,01,12,24,23.10
2015,07,01,12,25,23.10
2015,07,01,12,26,23.10
2015,07,01,12,27,23.20
2015,07,01,12,28,23.10
2015,07,01,12,29,23.10
2015,07,01,12,30,23.10
2015,07,01,12,31,23.20
2015,07,01,12,32,23.20
2015,07,01,12,33,23.20
2015,07,01,12,34,23.20
2015,07,01,12,35,23.20
2015,07,01,12,36,23.20
2015,07,01,12,37,23.20
2015,07,01,12,38,23.20
2015,07,01,12,39,23.20
2015,07,01,12,40,23.20
2015,07,01,12,41,23.20
2015,07,01,12,42,23.20
2015,07,01,12,43,23.30
2015,07,01,12,44,23.30
2015,07,01,12,45,23.30
2015,07,01,12,46,23.30
2015,07,01,12,47,23.30
2015,07,01,12,48,23.30
2015,07,01,12,49,23.30
2015,07,01,12,50,23.30
2015,07,01,12,51,23.40
2015,07,01,12,52,23.30
2015,07,01,12,53,23.30
2015,07,01,12,54,23.30
2015,07,01,12,55,23.30
2015,07,01,12,56,23.30
2015,07,01,12,57,23.30
2015,07,01,12,58,23.40
2015,07,01,12,59,23.40
2015,07,01,13,00,23.40
2015,07,01,13,01,23.40
2015,07,01,13,02,23.40
2015,07,01,13,03,23.40
2015,07,01,13,04,23.40
2015,07,01,13,05,23.50
2015,07,01,13,06,23.50
2015,07,01,13,07,23.60
2015,07,01,13,08,23.60
2015,07,01,13,09,23.60
2015,07,01,13,10,23.60
2015,07,01,13,11,23.60
2015,07,01,13,12,23.60
2015,07,01,13,13,23.70
2015,07,01,13,14,23.70
2015,07,01,13,15,23.70
2015,07,01,13,16,23.70
2015,07,01,13,17,23.80
2015,07,01,13,18,23.80
2015,07,01,13,19,23.90
2015,07,01,13,20,23.90
2015,07,01,13,21,23.90
2015,07,01,13,22,23.80
2015,07,01,13,23,23.80
2015,07,01,13,24,23.70
2015,07,01,13,25,23.70
2015,07,01,13,26,23.70
2015,07,01,13,27,23.70
2015,07,01,13,28,23.80
2015,07,01,13,29,23.80
2015,07,01,13,30,23.90
2015,07,01,13,31,24.00
2015,07,01,13,32,24.10
2015,07,01,13,33,24.10
2015,07,01,13,34,24.20
2015,07,01,13,35,24.20
2015,07,01,13,36,24.20
2015,07,01,13,37,24.20
2015,07,01,13,38,24.30
2015,07,01,13,39,24.30
2015,07,01,13,40,24.40
2015,07,01,13,41,24.40
2015,07,01,13,42,24.30
2015,07,01,13,43,24.30
2015,07,01,13,44,24.30
2015,07,01,13,45,24.20
2015,07,01,13,46,24.30
2015,07,01,13,47,24.20
2015,07,01,13,48,24.10
2015,07,01,13,49,24.10
2015,07,01,13,50,24.10
2015,07,01,13,51,24.10
2015,07,01,13,52,24.20
2015,07,01,13,53,24.20
2015,07,01,13,54,24.30
2015,07,01,13,55,24.40
2015,07,01,13,56,24.40
2015,07,01,13,57,24.50
2015,07,01,13,58,24.50
2015,07,01,13,59,24.60
2015,07,01,14,00,24.60
2015,07,01,14,01,24.70
2015,07,01,14,02,24.80
2015,07,01,14,03,24.90
2015,07,01,14,04,24.90
2015,07,01,14,05,24.90
2015,07,01,14,06,24.90
2015,07,01,14,07,24.90
2015,07,01,14,08,24.90
2015,07,01,14,09,25.00
2015,07,01,14,10,25.10
2015,07,01,14,11,25.10
2015,07,01,14,12,25.20
2015,07,01,14,13,25.30
2015,07,01,14,14,25.40
2015,07,01,14,15,25.50
2015,07,01,14,16,25.50
2015,07,01,14,17,25.70
2015,07,01,14,18,25.80
2015,07,01,14,19,25.90
2015,07,01,14,20,26.00
2015,07,01,14,21,26.10
2015,07,01,14,22,26.20
2015,07,01,14,23,26.30
2015,07,01,14,24,26.30
2015,07,01,14,25,26.20
2015,07,01,14,26,26.20
2015,07,01,14,27,26.20
2015,07,01,14,28,26.20
2015,07,01,14,29,26.20
2015,07,01,14,30,26.20
2015,07,01,14,31,26.20
2015,07,01,14,32,26.30
2015,07,01,14,33,26.30
2015,07,01,14,34,26.30
2015,07,01,14,35,26.30
2015,07,01,14,36,26.30
2015,07,01,14,37,26.40
2015,07,01,14,38,26.50
2015,07,01,14,39,26.50
2015,07,01,14,40,26.60
2015,07,01,14,41,26.60
2015,07,01,14,42,26.60
2015,07,01,14,43,26.70
2015,07,01,14,44,26.70
2015,07,01,14,45,26.70
2015,07,01,14,46,26.60
2015,07,01,14,47,26.60
2015,07,01,14,48,26.60
2015,07,01,14,49,26.70
2015,07,01,14,50,26.70
2015,07,01,14,51,26.80
2015,07,01,14,52,26.80
2015,07,01,14,53,26.80
2015,07,01,14,54,26.70
2015,07,01,14,55,26.70
2015,07,01,14,56,26.70
2015,07,01,14,57,26.70
2015,07,01,14,58,26.70
2015,07,01,14,59,26.70
2015,07,01,15,00,26.80
2015,07,01,15,01,26.80
2015,07,01,15,02,26.80
2015,07,01,15,03,26.80
2015,07,01,15,04,26.80
2015,07,01,15,05,26.90
2015,07,01,15,06,26.90
2015,07,01,15,07,27.00
2015,07,01,15,08,27.00
2015,07,01,15,09,27.10
2015,07,01,15,10,27.10
2015,07,01,15,11,27.10
2015,07,01,15,12,27.10
2015,07,01,15,13,27.10
2015,07,01,15,14,27.20
2015,07,01,15,15,27.20
2015,07,01,15,16,27.20
2015,07,01,15,17,27.30
2015,07,01,15,18,27.30
2015,07,01,15,19,27.30
2015,07,01,15,20,27.30
2015,07,01,15,21,27.30
2015,07,01,15,22,27.40
2015,07,01,15,23,27.60
2015,07,01,15,24,27.60
2015,07,01,15,25,27.70
2015,07,01,15,26,27.70
2015,07,01,15,27,27.70
2015,07,01,15,28,27.70
2015,07,01,15,29,27.70
2015,07,01,15,30,27.60
2015,07,01,15,31,27.60
2015,07,01,15,32,27.70
2015,07,01,15,33,27.70
2015,07,01,15,34,27.70
2015,07,01,15,35,27.70
2015,07,01,15,36,27.60
2015,07,01,15,37,27.60
2015,07,01,15,38,27.60
2015,07,01,15,39,27.60
2015,07,01,15,40,27.50
2015,07,01,15,41,27.40
2015,07,01,15,42,27.40
2015,07,01,15,43,27.40
2015,07,01,15,44,27.30
2015,07,01,15,45,27.30
2015,07,01,15,46,27.40
2015,07,01,15,47,27.40
2015,07,01,15,48,27.50
2015,07,01,15,49,27.50
2015,07,01,15,50,27.50
2015,07,01,15,51,27.50
2015,07,01,15,52,27.50
2015,07,01,15,53,27.60
2015,07,01,15,54,27.60
2015,07,01,15,55,27.60
2015,07,01,15,56,27.60
2015,07,01,15,57,27.60
2015,07,01,15,58,27.60
2015,07,01,15,59,27.50
2015,07,01,16,00,27.50
2015,07,01,16,01,27.50
2015,07,01,16,02,27.50
2015,07,01,16,03,27.50
2015,07,01,16,04,27.40
2015,07,01,16,05,27.50
2015,07,01,16,06,27.50
2015,07,01,16,07,27.50
2015,07,01,16,08,27.60
2015,07,01,16,09,27.60
2015,07,01,16,10,27.60
2015,07,01,16,11,27.70
2015,07,01,16,12,27.80
2015,07,01,16,13,27.80
2015,07,01,16,14,27.90
2015,07,01,16,15,27.90
2015,07,01,16,16,27.90
2015,07,01,16,17,28.00
2015,07,01,16,18,28.10
2015,07,01,16,19,28.10
2015,07,01,16,20,28.20
2015,07,01,16,21,28.20
2015,07,01,16,22,28.20
2015,07,01,16,23,28.20
2015,07,01,16,24,28.20
2015,07,01,16,25,28.20
2015,07,01,16,26,28.30
2015,07,01,16,27,28.30
2015,07,01,16,28,28.30
2015,07,01,16,29,28.30
2015,07,01,16,30,28.40
2015,07,01,16,31,28.40
2015,07,01,16,32,28.40
2015,07,01,16,33,28.40
2015,07,01,16,34,28.40
2015,07,01,16,35,28.30
2015,07,01,16,36,28.30
2015,07,01,16,37,28.20
2015,07,01,16,38,28.20
2015,07,01,16,39,28.10
2015,07,01,16,40,28.00
2015,07,01,16,41,28.00
2015,07,01,16,42,28.00
2015,07,01,16,43,28.00
2015,07,01,16,44,28.00
2015,07,01,16,45,28.10
2015,07,01,16,46,28.10
2015,07,01,16,47,28.10
2015,07,01,16,48,28.10
2015,07,01,16,49,28.10
2015,07,01,16,50,28.10
2015,07,01,16,51,28.20
2015,07,01,16,52,28.30
2015,07,01,16,53,28.30
2015,07,01,16,54,28.30
2015,07,01,16,55,28.30
2015,07,01,16,56,28.30
2015,07,01,16,57,28.40
2015,07,01,16,58,28.40
2015,07,01,16,59,28.50
2015,07,01,17,00,28.60
2015,07,01,17,01,28.60
2015,07,01,17,02,28.70
2015,07,01,17,03,28.70
2015,07,01,17,04,28.70
2015,07,01,17,05,28.70
2015,07,01,17,06,28.70
2015,07,01,17,07,28.70
2015,07,01,17,08,28.70
2015,07,01,17,09,28.70
2015,07,01,17,10,28.70
2015,07,01,17,11,28.70
2015,07,01,17,12,28.80
2015,07,01,17,13,28.80
2015,07,01,17,14,28.80
2015,07,01,17,15,28.80
2015,07,01,17,16,28.80
2015,07,01,17,17,28.90
2015,07,01,17,18,28.90
2015,07,01,17,19,28.90
2015,07,01,17,20,28.90
2015,07,01,17,21,28.90